�������l�o���
Date,Time,MP-1(��Sv/h),MP-2(��Sv/h),MP-3(��Sv/h),MP-4(��Sv/h),MP-5(��Sv/h),MP-6(��Sv/h),MP-7(��Sv/h),MP-8(��Sv/h),����,����(m/s),���J
2021/08/26,00:00,0.582,0.862,0.552,1.042,0.735,0.360,0.617,0.578,�k��,2.9,��
2021/08/26,00:10,0.582,0.861,0.554,1.042,0.735,0.360,0.619,0.581,��,2.6,��
2021/08/26,00:20,0.583,0.860,0.552,1.043,0.738,0.360,0.619,0.579,���k��,2.5,��
2021/08/26,00:30,0.583,0.861,0.551,1.043,0.735,0.360,0.618,0.579,�k,1.1,��
2021/08/26,00:40,0.582,0.860,0.553,1.042,0.737,0.359,0.619,0.578,�쓌,0.8,��
2021/08/26,00:50,0.582,0.862,0.552,1.043,0.736,0.360,0.618,0.579,�k�k��,0.8,��
2021/08/26,01:00,0.582,0.863,0.552,1.045,0.735,0.359,0.618,0.579,���쓌,0.6,��
2021/08/26,01:10,0.584,0.864,0.552,1.046,0.737,0.359,0.619,0.579,���쓌,2.2,��
2021/08/26,01:20,0.583,0.864,0.552,1.045,0.735,0.361,0.619,0.579,��,2.2,��
2021/08/26,01:30,0.583,0.860,0.552,1.043,0.736,0.360,0.618,0.580,���쓌,2.5,��
2021/08/26,01:40,0.582,0.863,0.553,1.044,0.736,0.359,0.619,0.579,��,1.5,��
2021/08/26,01:50,0.582,0.862,0.551,1.045,0.737,0.361,0.617,0.579,�k��,0.8,��
2021/08/26,02:00,0.581,0.863,0.552,1.046,0.737,0.361,0.619,0.580,�쓌,2.2,��
2021/08/26,02:10,0.581,0.862,0.552,1.044,0.738,0.360,0.618,0.580,�쓌,1.5,��
2021/08/26,02:20,0.583,0.862,0.552,1.046,0.736,0.362,0.619,0.581,���쓌,1.4,��
2021/08/26,02:30,0.583,0.864,0.553,1.044,0.738,0.361,0.619,0.579,���쓌,1.5,��
2021/08/26,02:40,0.583,0.865,0.553,1.042,0.737,0.360,0.619,0.578,���k��,1.5,��
2021/08/26,02:50,0.581,0.860,0.553,1.045,0.737,0.361,0.619,0.578,�k��,2.2,��
2021/08/26,03:00,0.582,0.863,0.552,1.044,0.735,0.360,0.618,0.580,�k�k��,1.9,��
2021/08/26,03:10,0.583,0.863,0.553,1.044,0.737,0.360,0.618,0.580,�k,1.7,��
2021/08/26,03:20,0.583,0.862,0.552,1.045,0.738,0.360,0.618,0.580,�k��,3.1,��
2021/08/26,03:30,0.583,0.863,0.552,1.046,0.737,0.360,0.619,0.580,�k��,4.1,��
2021/08/26,03:40,0.585,0.862,0.553,1.045,0.737,0.361,0.618,0.580,��,1.7,��
2021/08/26,03:50,0.583,0.864,0.553,1.045,0.738,0.361,0.619,0.579,���k��,4.5,��
2021/08/26,04:00,0.583,0.864,0.552,1.045,0.738,0.361,0.620,0.581,���k��,6.1,��
2021/08/26,04:10,0.582,0.862,0.553,1.045,0.736,0.361,0.617,0.578,���k��,4.0,��
2021/08/26,04:20,0.583,0.863,0.554,1.047,0.738,0.361,0.619,0.580,�k��,2.2,��
2021/08/26,04:30,0.584,0.864,0.553,1.044,0.737,0.361,0.618,0.579,�k�k��,0.9,��
2021/08/26,04:40,0.582,0.862,0.552,1.046,0.738,0.360,0.619,0.581,�k��,3.7,��
2021/08/26,04:50,0.582,0.863,0.553,1.045,0.737,0.359,0.618,0.580,���k��,5.1,��
2021/08/26,05:00,0.583,0.864,0.552,1.046,0.738,0.360,0.619,0.580,���k��,6.3,��
2021/08/26,05:10,0.583,0.865,0.552,1.046,0.738,0.359,0.620,0.579,���k��,3.9,��
2021/08/26,05:20,0.583,0.865,0.553,1.046,0.737,0.360,0.619,0.580,��,3.4,��
2021/08/26,05:30,0.584,0.863,0.552,1.046,0.738,0.360,0.619,0.581,��,3.2,��
2021/08/26,05:40,0.582,0.863,0.553,1.045,0.738,0.360,0.620,0.580,�k��,0.9,��
2021/08/26,05:50,0.584,0.865,0.553,1.046,0.738,0.361,0.619,0.579,���쐼,1.4,��
2021/08/26,06:00,0.582,0.863,0.553,1.045,0.739,0.359,0.619,0.582,-,CALM,��
2021/08/26,06:10,0.583,0.866,0.553,1.044,0.739,0.361,0.620,0.581,���k��,1.5,��
2021/08/26,06:20,0.584,0.866,0.554,1.047,0.738,0.360,0.618,0.582,���쓌,1.1,��
2021/08/26,06:30,0.584,0.865,0.550,1.045,0.738,0.361,0.618,0.580,�k��,0.9,��
2021/08/26,06:40,0.582,0.866,0.553,1.045,0.736,0.360,0.619,0.580,���k��,0.6,��
2021/08/26,06:50,0.583,0.863,0.553,1.048,0.737,0.359,0.619,0.581,���k��,1.7,��
2021/08/26,07:00,0.582,0.866,0.552,1.046,0.738,0.361,0.620,0.579,��,2.2,��
2021/08/26,07:10,0.583,0.865,0.553,1.045,0.738,0.360,0.618,0.580,�쐼,0.8,��
2021/08/26,07:20,0.583,0.863,0.554,1.046,0.738,0.362,0.620,0.581,���k��,2.8,��
2021/08/26,07:30,0.582,0.863,0.552,1.045,0.739,0.361,0.620,0.580,�k��,3.5,��
2021/08/26,07:40,0.581,0.865,0.553,1.046,0.738,0.361,0.619,0.581,�k��,5.0,��
2021/08/26,07:50,0.582,0.863,0.554,1.046,0.737,0.362,0.619,0.580,�k��,4.7,��
2021/08/26,08:00,0.584,0.864,0.553,1.047,0.737,0.360,0.619,0.580,�k��,3.0,��
2021/08/26,08:10,0.584,0.863,0.553,1.046,0.738,0.361,0.618,0.580,�k�k��,2.6,��
2021/08/26,08:20,0.585,0.863,0.552,1.046,0.738,0.360,0.620,0.581,�k�k��,2.5,��
2021/08/26,08:30,0.583,0.864,0.553,1.047,0.738,0.361,0.618,0.580,�k��,2.5,��
2021/08/26,08:40,0.585,0.863,0.555,1.045,0.737,0.361,0.619,0.579,�k��,5.1,��
2021/08/26,08:50,0.585,0.862,0.553,1.049,0.739,0.360,0.620,0.581,���k��,5.2,��
2021/08/26,09:00,0.585,0.863,0.554,1.048,0.739,0.360,0.621,0.581,�k��,2.3,��
2021/08/26,09:10,0.583,0.863,0.554,1.048,0.739,0.361,0.619,0.580,-,CALM,��
2021/08/26,09:20,0.585,0.863,0.554,1.047,0.739,0.361,0.621,0.580,��쐼,0.6,��
2021/08/26,09:30,0.586,0.864,0.555,1.046,0.738,0.360,0.621,0.580,��쐼,0.6,��
2021/08/26,09:40,0.585,0.864,0.555,1.049,0.739,0.360,0.620,0.578,��,1.5,��
2021/08/26,09:50,0.584,0.864,0.554,1.048,0.740,0.360,0.621,0.579,�k,1.1,��
2021/08/26,10:00,0.584,0.864,0.554,1.047,0.737,0.361,0.620,0.579,���k��,0.9,��
2021/08/26,10:10,0.586,0.863,0.555,1.046,0.739,0.361,0.620,0.580,��,1.7,��
2021/08/26,10:20,0.583,0.863,0.554,1.047,0.739,0.360,0.620,0.579,���쓌,2.6,��
2021/08/26,10:30,0.584,0.865,0.552,1.049,0.738,0.360,0.619,0.579,�쓌,2.2,��
2021/08/26,10:40,0.583,0.863,0.553,1.048,0.737,0.361,0.620,0.580,�쓌,2.5,��
2021/08/26,10:50,0.584,0.863,0.553,1.051,0.740,0.361,0.621,0.579,��쓌,2.6,��
2021/08/26,11:00,0.586,0.863,0.555,1.049,0.742,0.360,0.621,0.579,�쓌,2.5,��
2021/08/26,11:10,0.585,0.866,0.555,1.051,0.740,0.360,0.619,0.579,�쓌,3.1,��
2021/08/26,11:20,0.586,0.865,0.555,1.050,0.744,0.361,0.622,0.580,��쓌,4.1,��
2021/08/26,11:30,0.586,0.865,0.556,1.050,0.744,0.361,0.620,0.579,��쓌,4.1,��
2021/08/26,11:40,0.588,0.868,0.556,1.051,0.743,0.361,0.621,0.579,��쓌,3.3,��
2021/08/26,11:50,0.588,0.866,0.556,1.049,0.742,0.361,0.622,0.580,�쓌,4.2,��
2021/08/26,12:00,0.588,0.866,0.557,1.048,0.741,0.362,0.620,0.580,�쓌,3.0,��
2021/08/26,12:10,0.587,0.868,0.556,1.049,0.744,0.360,0.621,0.581,�쓌,3.0,��
2021/08/26,12:20,0.588,0.869,0.558,1.050,0.743,0.360,0.621,0.581,�쓌,3.3,��
2021/08/26,12:30,0.587,0.871,0.557,1.049,0.745,0.362,0.621,0.581,�쓌,4.6,��
2021/08/26,12:40,0.588,0.872,0.557,1.050,0.745,0.360,0.622,0.580,�쓌,4.4,��
2021/08/26,12:50,0.586,0.873,0.558,1.053,0.746,0.361,0.622,0.581,�쓌,5.3,��
2021/08/26,13:00,0.588,0.870,0.558,1.052,0.745,0.362,0.622,0.580,�쓌,5.4,��
2021/08/26,13:10,0.588,0.871,0.558,1.053,0.747,0.362,0.622,0.580,�쓌,6.4,��
2021/08/26,13:20,0.588,0.871,0.558,1.055,0.746,0.362,0.621,0.580,�쓌,6.4,��
2021/08/26,13:30,0.590,0.870,0.556,1.053,0.748,0.363,0.622,0.582,�쓌,6.4,��
2021/08/26,13:40,0.591,0.871,0.558,1.052,0.747,0.362,0.623,0.582,��쓌,5.0,��
2021/08/26,13:50,0.590,0.874,0.557,1.052,0.746,0.363,0.623,0.582,�쓌,6.5,��
2021/08/26,14:00,0.591,0.873,0.558,1.052,0.747,0.363,0.623,0.583,��쓌,6.6,��
2021/08/26,14:10,0.591,0.874,0.557,1.053,0.746,0.364,0.624,0.583,��쓌,3.1,��
2021/08/26,14:20,0.590,0.873,0.559,1.056,0.746,0.363,0.624,0.584,�쓌,1.1,��
2021/08/26,14:30,0.590,0.874,0.560,1.054,0.749,0.363,0.623,0.583,��쓌,2.3,��
2021/08/26,14:40,0.591,0.872,0.561,1.057,0.747,0.364,0.624,0.581,��,3.0,��
2021/08/26,14:50,0.590,0.874,0.559,1.055,0.747,0.364,0.625,0.583,��,4.1,��
2021/08/26,15:00,0.591,0.876,0.559,1.053,0.747,0.364,0.625,0.582,��,2.5,��
2021/08/26,15:10,0.589,0.874,0.560,1.054,0.749,0.363,0.624,0.582,��,3.9,��
2021/08/26,15:20,0.590,0.876,0.559,1.053,0.750,0.365,0.625,0.583,��,2.8,��
2021/08/26,15:30,0.590,0.876,0.561,1.054,0.749,0.364,0.624,0.582,��쐼,2.8,��
2021/08/26,15:40,0.589,0.875,0.562,1.054,0.750,0.363,0.624,0.582,��쐼,2.6,��
2021/08/26,15:50,0.590,0.874,0.562,1.055,0.750,0.365,0.624,0.581,��쐼,2.6,��
2021/08/26,16:00,0.590,0.876,0.561,1.055,0.750,0.363,0.625,0.583,��,3.2,��
2021/08/26,16:10,0.590,0.877,0.560,1.053,0.751,0.363,0.626,0.583,��,3.1,��
2021/08/26,16:20,0.591,0.877,0.563,1.054,0.751,0.365,0.624,0.584,��,3.1,��
2021/08/26,16:30,0.592,0.875,0.560,1.054,0.752,0.364,0.624,0.582,�쐼,3.0,��
2021/08/26,16:40,0.591,0.875,0.559,1.055,0.750,0.364,0.623,0.581,���쐼,5.8,��
2021/08/26,16:50,0.591,0.875,0.558,1.059,0.749,0.363,0.621,0.583,���쐼,6.2,��
2021/08/26,17:00,0.591,0.875,0.559,1.059,0.751,0.362,0.622,0.583,��,5.0,��
2021/08/26,17:10,0.592,0.874,0.560,1.057,0.749,0.363,0.622,0.582,��,4.0,��
2021/08/26,17:20,0.590,0.874,0.560,1.056,0.747,0.363,0.624,0.583,��,3.5,��
2021/08/26,17:30,0.591,0.874,0.558,1.057,0.748,0.363,0.625,0.581,��,2.6,��
2021/08/26,17:40,0.591,0.874,0.558,1.057,0.748,0.364,0.623,0.584,���쐼,2.5,��
2021/08/26,17:50,0.592,0.875,0.558,1.059,0.749,0.363,0.622,0.582,�쐼,1.9,��
2021/08/26,18:00,0.591,0.873,0.559,1.057,0.750,0.362,0.623,0.583,�쐼,1.7,��
2021/08/26,18:10,0.592,0.876,0.559,1.057,0.749,0.363,0.623,0.583,�쐼,1.7,��
2021/08/26,18:20,0.590,0.873,0.559,1.056,0.749,0.363,0.622,0.584,���쐼,1.5,��
2021/08/26,18:30,0.591,0.874,0.560,1.057,0.748,0.364,0.622,0.581,�쐼,3.3,��
2021/08/26,18:40,0.592,0.876,0.559,1.059,0.748,0.362,0.622,0.582,��쐼,4.3,��
2021/08/26,18:50,0.592,0.875,0.559,1.057,0.749,0.363,0.623,0.582,��쐼,5.0,��
2021/08/26,19:00,0.589,0.875,0.558,1.058,0.748,0.361,0.622,0.582,��쐼,4.4,��
2021/08/26,19:10,0.590,0.875,0.559,1.057,0.749,0.362,0.624,0.583,�쐼,3.8,��
2021/08/26,19:20,0.590,0.877,0.559,1.058,0.749,0.362,0.623,0.583,�쐼,4.5,��
2021/08/26,19:30,0.590,0.875,0.560,1.057,0.747,0.362,0.624,0.583,���쐼,3.2,��
2021/08/26,19:40,0.593,0.878,0.560,1.058,0.748,0.364,0.621,0.584,���쐼,3.1,��
2021/08/26,19:50,0.590,0.876,0.558,1.058,0.750,0.362,0.624,0.582,���쐼,4.3,��
2021/08/26,20:00,0.592,0.876,0.557,1.058,0.750,0.363,0.623,0.583,���쐼,3.7,��
2021/08/26,20:10,0.593,0.875,0.560,1.055,0.752,0.362,0.622,0.583,�쐼,3.4,��
2021/08/26,20:20,0.590,0.875,0.561,1.055,0.749,0.362,0.623,0.582,�쐼,3.6,��
2021/08/26,20:30,0.591,0.877,0.559,1.056,0.752,0.361,0.623,0.583,���쐼,3.6,��
2021/08/26,20:40,0.591,0.876,0.559,1.057,0.750,0.364,0.622,0.581,���쐼,2.8,��
2021/08/26,20:50,0.589,0.875,0.560,1.057,0.750,0.363,0.621,0.583,���쐼,2.8,��
2021/08/26,21:00,0.591,0.874,0.560,1.058,0.751,0.363,0.623,0.583,���쐼,3.7,��
2021/08/26,21:10,0.594,0.876,0.561,1.056,0.751,0.363,0.623,0.583,��,5.7,��
2021/08/26,21:20,0.591,0.877,0.560,1.056,0.751,0.363,0.621,0.583,��,5.8,��
2021/08/26,21:30,0.592,0.876,0.558,1.060,0.750,0.363,0.624,0.582,��,6.8,��
2021/08/26,21:40,0.593,0.877,0.558,1.059,0.748,0.363,0.623,0.584,��,7.2,��
2021/08/26,21:50,0.591,0.876,0.560,1.058,0.750,0.363,0.624,0.583,��,7.7,��
2021/08/26,22:00,0.590,0.879,0.559,1.060,0.749,0.364,0.624,0.583,��,7.3,��
2021/08/26,22:10,0.591,0.877,0.560,1.059,0.750,0.363,0.623,0.582,��,5.1,��
2021/08/26,22:20,0.593,0.876,0.559,1.057,0.748,0.364,0.623,0.583,���쐼,4.5,��
2021/08/26,22:30,0.591,0.877,0.559,1.059,0.749,0.362,0.622,0.583,��,7.5,��
2021/08/26,22:40,0.592,0.875,0.559,1.060,0.750,0.362,0.624,0.583,��,6.2,��
2021/08/26,22:50,0.592,0.874,0.559,1.059,0.752,0.364,0.624,0.583,�쐼,2.6,��
2021/08/26,23:00,0.593,0.876,0.560,1.060,0.749,0.363,0.625,0.584,�쐼,3.8,��
2021/08/26,23:10,0.592,0.878,0.560,1.059,0.750,0.364,0.626,0.584,���쐼,4.5,��
2021/08/26,23:20,0.592,0.876,0.561,1.061,0.749,0.363,0.624,0.583,��,6.0,��
2021/08/26,23:30,0.591,0.877,0.561,1.062,0.749,0.363,0.624,0.583,���쐼,6.3,��
2021/08/26,23:40,0.593,0.878,0.560,1.062,0.751,0.362,0.624,0.585,��,6.7,��
2021/08/26,23:50,0.591,0.876,0.561,1.061,0.749,0.364,0.625,0.584,��,6.3,��
